GW1572 Weather Reports


time (UTC)temp
F
wind
direction
speed
knots
gust
knots
rain 1hr
in
rain 24hr
in
rain mn
in
humidity
%
barometer
mb
20260504200320 69 257 0.9 0.9 0.00 0.00 0.00 68 1001.6
20260504195752 68 319 0.9 1.7 0.00 0.00 0.00 63 1001.6
20260504195125 68 20 0.9 0.9 0.00 0.00 0.00 64 1002.0
20260504194552 68 9 1.7 1.7 0.00 0.00 0.00 64 1001.6
20260504193936 70 355 1.7 1.7 0.00 0.00 0.00 60 1001.6
20260504193338 70 340 2.6 2.6 0.00 0.00 0.00 59 1002.3
20260504192722 72 344 1.7 2.6 0.00 0.00 0.00 58 1002.3
20260504192139 72 311 3.5 6.1 0.00 0.00 0.00 56 1002.3
20260504191533 72 335 1.7 1.7 0.00 0.00 0.00 56 1002.0
20260504190949 72 260 3.5 5.2 0.00 0.00 0.00 57 1002.0
20260504185733 72 17 2.6 5.2 0.00 0.00 0.00 55 1002.0
20260504184535 74 264 4.3 5.2 0.00 0.00 0.00 52 1002.7
20260504183943 73 298 5.2 6.1 0.00 0.00 0.00 53 1002.7
20260504183329 72 333 2.6 6.1 0.00 0.00 0.00 56 1002.7
20260504182741 73 24 2.6 5.2 0.00 0.00 0.00 53 1002.7
20260504182142 73 270 1.7 1.7 0.00 0.00 0.00 54 1002.7
20260504181512 73 10 1.7 2.6 0.00 0.00 0.00 53 1002.7
20260504180923 73 286 4.3 7.0 0.00 0.00 0.00 55 1002.7
20260504180320 72 1 5.2 6.1 0.00 0.00 0.00 58 1002.7
20260504175748 73 342 1.7 2.6 0.00 0.00 0.00 55 1002.7
20260504174534 72 315 5.2 7.0 0.00 0.00 0.00 55 1002.3
20260504173931 70 5 4.3 5.2 0.00 0.00 0.00 60 1002.7
20260504172713 73 245 2.6 2.6 0.00 0.00 0.00 58 1002.3
20260504172134 73 356 3.5 3.5 0.00 0.00 0.00 55 1002.7
20260504171554 71 338 1.7 1.7 0.00 0.00 0.00 60 1002.7
20260504170919 70 23 5.2 7.8 0.00 0.00 0.00 55 1003.0
20260504170335 70 321 3.5 3.5 0.00 0.00 0.00 58 1003.0
20260504160347 66 349 3.5 5.2 0.00 0.00 0.00 67 1004.0
20260504141236 59 6 1.7 1.7 0.00 0.00 0.00 72 1005.0
20260504140653 58 343 3.5 5.2 0.00 0.00 0.00 72 1005.0
20260504130633 56 353 1.7 2.6 0.00 0.00 0.00 71 1004.7
20260504110627 45 239 0.0 0.0 0.00 0.00 0.00 92 1004.7
20260504081815 46 250 0.0 0.0 0.00 0.00 0.00 97 1005.4
20260504081216 46 266 0.0 0.0 0.00 0.00 0.00 96 1005.7
20260504080626 46 288 0.0 0.0 0.00 0.00 0.00 96 1005.4
20260504045417 50 265 0.0 0.0 0.00 0.00 0.00 91 1007.1
20260504044831 51 259 0.0 0.0 0.00 0.00 0.00 91 1007.1
20260504044221 51 263 0.0 0.0 0.00 0.00 0.00 89 1007.1
20260504043642 52 268 0.0 0.0 0.00 0.00 0.00 86 1007.1
20260504043048 52 272 0.0 0.0 0.00 0.00 0.00 81 1007.4
20260504042431 52 313 0.9 0.9 0.00 0.00 0.00 76 1007.4
20260504041228 53 8 1.7 1.7 0.00 0.00 0.00 72 1007.4
20260504040644 54 359 2.6 2.6 0.00 0.00 0.00 68 1007.4
20260504040030 55 353 0.9 0.9 0.00 0.00 0.00 62 1007.1
20260504035428 53 18 2.6 3.5 0.00 0.00 0.00 62 1007.1
20260504034215 53 275 0.0 0.0 0.00 0.00 0.00 72 1007.4
20260504033612 53 271 0.0 0.0 0.00 0.00 0.00 72 1007.1
20260504033036 53 279 0.0 0.0 0.00 0.00 0.00 71 1007.1
20260504031244 53 268 0.0 0.0 0.00 0.00 0.00 72 1007.1
20260504030018 52 279 0.0 0.0 0.00 0.00 0.00 71 1007.1
20260504025414 53 290 0.0 0.0 0.00 0.00 0.00 71 1007.1
20260504024824 53 268 0.0 0.0 0.00 0.00 0.00 71 1007.4
20260504024220 52 259 1.7 1.7 0.00 0.00 0.00 69 1007.1
20260504023633 52 280 0.0 0.0 0.00 0.00 0.00 70 1007.1
20260504023027 52 268 0.0 0.0 0.00 0.00 0.00 71 1007.1
20260504022437 52 273 0.0 0.0 0.00 0.00 0.00 70 1007.1
20260504021834 52 266 0.0 0.0 0.00 0.00 0.00 71 1007.1
20260504020620 52 251 0.0 0.0 0.00 0.00 0.00 72 1007.1
20260504020020 53 279 0.0 0.0 0.00 0.00 0.00 70 1006.7
20260504015443 53 268 0.0 0.0 0.00 0.00 0.00 70 1006.7
20260504014826 53 276 0.0 0.0 0.00 0.00 0.00 69 1006.7
20260504014244 53 275 0.0 0.0 0.00 0.00 0.00 69 1006.7
20260504013650 53 286 0.0 0.0 0.00 0.00 0.00 67 1006.7
20260504012412 53 207 0.0 0.0 0.00 0.00 0.00 68 1006.7
20260504011837 53 327 0.0 0.9 0.00 0.00 0.00 66 1007.1
20260504011214 54 268 0.0 0.0 0.00 0.00 0.00 66 1006.7
20260504010635 54 295 0.0 0.0 0.00 0.00 0.00 63 1006.7
20260504010049 54 271 0.0 0.0 0.00 0.00 0.00 62 1007.1
20260504005438 54 272 0.0 0.0 0.00 0.00 0.00 62 1007.1
20260504004247 54 270 0.0 0.0 0.00 0.00 0.00 61 1006.7
20260504003614 55 263 0.0 0.0 0.00 0.00 0.00 59 1006.7
20260504003040 55 261 0.0 0.0 0.00 0.00 0.00 57 1006.7
20260504002436 56 263 0.0 0.0 0.00 0.00 0.00 58 1006.7
20260504001818 56 217 0.0 0.0 0.00 0.00 0.00 57 1006.7
20260504001219 57 280 0.0 0.0 0.00 0.00 0.00 57 1006.7
20260504000654 57 257 0.0 0.0 0.00 0.00 0.00 57 1007.1
20260504000042 58 258 0.0 0.0 0.00 0.00 0.00 56 1006.7
20260503235412 59 266 0.0 0.0 0.00 0.00 0.00 55 1006.7
20260503234815 60 242 0.0 0.0 0.00 0.00 0.00 57 1006.4
20260503234236 60 271 0.0 0.0 0.00 0.00 0.00 55 1006.7
20260503233627 61 278 0.0 0.0 0.00 0.00 0.00 52 1006.7
20260503233035 60 1 0.9 0.9 0.00 0.00 0.00 42 1006.7
20260503232447 61 221 0.0 0.0 0.00 0.00 0.00 43 1006.4
20260503231818 61 280 0.0 0.0 0.00 0.00 0.00 47 1006.7
20260503231252 62 336 0.0 0.9 0.00 0.00 0.00 39 1007.1
20260503230636 62 268 0.9 0.9 0.00 0.00 0.00 37 1007.1
20260503230041 62 300 2.6 2.6 0.00 0.00 0.00 38 1007.4
20260503224223 63 313 3.5 5.2 0.00 0.00 0.00 38 1007.4
20260503223614 63 246 1.7 2.6 0.00 0.00 0.00 39 1007.4
20260503223014 63 266 2.6 3.5 0.00 0.00 0.00 37 1007.4
20260503222422 63 293 0.9 1.7 0.00 0.00 0.00 41 1007.4
20260503221820 63 290 1.7 1.7 0.00 0.00 0.00 35 1007.7
20260503221224 65 354 3.5 3.5 0.00 0.00 0.00 34 1007.4
20260503220654 65 257 2.6 3.5 0.00 0.00 0.00 37 1007.4
20260503220044 65 273 2.6 5.2 0.00 0.00 0.00 36 1007.4
20260503215439 66 302 2.6 2.6 0.00 0.00 0.00 36 1007.4
20260503214810 65 294 1.7 1.7 0.00 0.00 0.00 36 1007.4
20260503214224 65 4 2.6 3.5 0.00 0.00 0.00 39 1007.4
20260503213647 65 310 0.9 1.7 0.00 0.00 0.00 34 1007.4
20260503212440 63 43 1.7 2.6 0.00 0.00 0.00 37 1007.7
20260503211827 63 12 1.7 2.6 0.00 0.00 0.00 35 1007.7
20260503211227 65 300 1.7 2.6 0.00 0.00 0.00 35 1007.4
20260503210647 65 353 1.7 1.7 0.00 0.00 0.00 35 1007.7
20260503210017 65 285 2.6 2.6 0.00 0.00 0.00 36 1007.7
20260503205430 64 282 3.5 5.2 0.00 0.00 0.00 36 1007.7
20260503204242 65 320 1.7 2.6 0.00 0.00 0.00 39 1007.7
20260503203038 65 303 3.5 3.5 0.00 0.00 0.00 39 1008.1
20260503202422 64 13 1.7 2.6 0.00 0.00 0.00 36 1008.1
20260503201816 67 297 1.7 2.6 0.00 0.00 0.00 37 1008.1
20260503201234 64 271 0.9 0.9 0.00 0.00 0.00 38 1008.4